W4SKW Weather Reports


Display with metric or nautical units.
time (UTC)temp
F
wind
direction
speed
MPH
gust
MPH
rain 1hr
in
rain 24hr
in
rain mn
in
humidity
%
barometer
mb
20260504081858 40 252 0.0 0.0 0.00 0.00 0.00 95 1018.8
20260504081354 40 252 0.0 0.0 0.00 0.00 0.00 95 1018.9
20260504080850 40 252 0.0 0.0 0.00 0.00 0.00 95 1018.6
20260504080348 40 252 0.0 0.0 0.00 0.00 0.00 95 1018.6
20260504050646 43 252 0.0 0.0 0.00 0.00 0.00 93 1019.6
20260504050143 43 252 0.0 0.0 0.00 0.00 0.00 93 1019.6
20260504045640 43 250 0.0 0.0 0.00 0.00 0.00 93 1019.6
20260504045140 43 251 0.0 0.0 0.00 0.00 0.00 93 1019.8
20260504044638 44 250 0.0 0.0 0.00 0.00 0.00 93 1019.8
20260504044135 44 252 0.0 0.0 0.00 0.00 0.00 93 1019.6
20260504043632 44 252 0.0 0.0 0.00 0.00 0.00 93 1019.6
20260504043129 44 251 0.0 0.0 0.00 0.00 0.00 92 1019.5
20260504042626 44 251 0.0 0.0 0.00 0.00 0.00 92 1019.5
20260504042123 44 252 0.0 0.0 0.00 0.00 0.00 92 1019.5
20260504041618 44 252 0.0 0.0 0.00 0.00 0.00 92 1019.3
20260504041115 45 252 0.0 0.0 0.00 0.00 0.00 92 1019.5
20260504040612 45 252 0.0 0.0 0.00 0.00 0.00 92 1019.5
20260504040109 45 252 0.0 0.0 0.00 0.00 0.00 91 1019.3
20260504035606 45 251 0.0 0.0 0.00 0.00 0.00 91 1019.5
20260504035102 45 251 0.0 0.0 0.00 0.00 0.00 91 1019.3
20260504034600 45 251 0.0 0.0 0.00 0.00 0.00 90 1019.4
20260504034056 45 253 0.0 0.0 0.00 0.00 0.00 90 1019.4
20260504033554 46 253 0.0 0.0 0.00 0.00 0.00 90 1019.4
20260504033052 46 253 0.0 0.0 0.00 0.00 0.00 89 1019.4
20260504032549 46 252 0.0 0.0 0.00 0.00 0.00 89 1019.3
20260504032045 46 252 0.0 0.0 0.00 0.00 0.00 89 1019.3
20260504031542 46 252 0.0 0.0 0.00 0.00 0.00 88 1019.3
20260504031038 46 252 0.0 0.0 0.00 0.00 0.00 88 1019.4
20260504030536 46 252 0.0 0.0 0.00 0.00 0.00 88 1019.2
20260504030032 46 252 0.0 0.0 0.00 0.00 0.00 87 1019.3
20260504025529 46 252 0.0 0.0 0.00 0.00 0.00 87 1019.3
20260504025026 46 253 0.0 0.0 0.00 0.00 0.00 87 1019.2
20260504024523 47 253 0.0 0.0 0.00 0.00 0.00 86 1019.1
20260504024020 47 252 0.0 0.0 0.00 0.00 0.00 86 1019.4
20260504023517 48 253 0.0 0.0 0.00 0.00 0.00 85 1019.4
20260504023012 47 253 0.0 0.0 0.00 0.00 0.00 86 1019.3
20260504022508 47 254 0.0 0.0 0.00 0.00 0.00 87 1019.3
20260504022005 47 252 0.0 0.0 0.00 0.00 0.00 86 1019.2
20260504021503 47 252 0.0 0.0 0.00 0.00 0.00 86 1019.2
20260504020959 48 253 0.0 0.0 0.00 0.00 0.00 85 1019.2
20260504020456 48 253 0.0 0.0 0.00 0.00 0.00 85 1019.2
20260504015953 48 253 0.0 0.0 0.00 0.00 0.00 86 1019.0
20260504015449 48 253 0.0 0.0 0.00 0.00 0.00 85 1019.0
20260504014945 49 253 0.0 0.0 0.00 0.00 0.00 85 1018.9
20260504014441 49 253 0.0 0.0 0.00 0.00 0.00 85 1018.9
20260504013553 50 253 0.0 0.0 0.00 0.00 0.00 84 1019.0
20260504013050 50 253 0.0 0.0 0.00 0.00 0.00 84 1019.0
20260504012547 50 253 0.0 0.0 0.00 0.00 0.00 84 1018.9
20260504012045 50 253 0.0 0.0 0.00 0.00 0.00 83 1018.9
20260504011542 51 253 0.0 0.0 0.00 0.00 0.00 83 1019.0
20260504011038 52 254 0.0 0.0 0.00 0.00 0.00 82 1018.8
20260504010534 52 251 0.0 0.0 0.00 0.00 0.00 82 1018.6
20260504010030 52 251 0.0 0.0 0.00 0.00 0.00 81 1018.7
20260504005526 52 247 0.0 0.0 0.00 0.00 0.00 81 1018.7
20260504005024 53 253 0.0 0.0 0.00 0.00 0.00 80 1018.6
20260504004521 54 253 0.0 0.0 0.00 0.00 0.00 79 1018.5
20260504004013 54 253 0.0 0.0 0.00 0.00 0.00 79 1018.5
20260504003509 55 251 0.0 0.0 0.00 0.00 0.00 79 1018.4
20260504003006 56 256 0.0 0.0 0.00 0.00 0.00 79 1018.2
20260504002503 57 254 0.0 0.0 0.00 0.00 0.00 77 1018.3
20260504002000 58 258 0.0 0.0 0.00 0.00 0.00 76 1018.3
20260504001458 59 253 0.0 0.0 0.00 0.00 0.00 74 1018.3
20260504000954 59 253 0.0 0.0 0.00 0.00 0.00 74 1018.4
20260504000451 60 254 0.0 0.0 0.00 0.00 0.00 72 1018.3
20260503235948 61 253 0.0 0.0 0.00 0.00 0.00 71 1018.2
20260503235446 62 247 0.0 0.0 0.00 0.00 0.00 64 1018.4
20260503234943 62 247 0.0 0.0 0.00 0.00 0.00 64 1018.4
20260503234441 62 260 0.0 0.0 0.00 0.00 0.00 68 1018.5
20260503233939 63 261 0.0 0.0 0.00 0.00 0.00 63 1018.4
20260503233435 63 251 0.0 0.0 0.00 0.00 0.00 61 1018.3
20260503232931 64 257 0.0 0.0 0.00 0.00 0.00 60 1018.4
20260503232428 66 253 0.0 0.0 0.00 0.00 0.00 56 1018.3
20260503231926 66 253 0.0 0.0 0.00 0.00 0.00 56 1018.3
20260503231424 66 261 0.0 0.0 0.00 0.00 0.00 51 1018.4
20260503230920 66 257 0.0 0.0 0.00 0.00 0.00 54 1018.1
20260503230416 67 239 0.0 0.0 0.00 0.00 0.00 53 1018.2
20260503225914 69 263 0.0 0.0 0.00 0.00 0.00 47 1018.1
20260503225410 71 258 0.0 0.0 0.00 0.00 0.00 39 1018.3
20260503224906 70 303 0.0 0.0 0.00 0.00 0.00 39 1018.3
20260503224403 71 243 0.0 0.0 0.00 0.00 0.00 38 1018.5
20260503223901 71 206 0.0 0.0 0.00 0.00 0.00 39 1018.3
20260503223359 72 237 0.0 0.0 0.00 0.00 0.00 38 1018.4
20260503222854 71 286 0.0 0.0 0.00 0.00 0.00 41 1018.4
20260503222353 71 236 0.0 0.0 0.00 0.00 0.00 38 1018.6
20260503221851 71 260 0.0 0.0 0.00 0.00 0.00 40 1018.6
20260503221349 72 262 0.0 0.0 0.00 0.00 0.00 40 1018.5
20260503220845 71 157 0.0 1.0 0.00 0.00 0.00 39 1018.6
20260503220342 71 157 0.0 1.0 0.00 0.00 0.00 39 1018.6
20260503215839 71 265 0.0 0.0 0.00 0.00 0.00 42 1018.7
20260503215336 71 251 0.0 0.0 0.00 0.00 0.00 39 1018.6
20260503214833 72 200 0.0 0.0 0.00 0.00 0.00 40 1018.7
20260503214331 71 254 0.0 0.0 0.00 0.00 0.00 40 1018.8
20260503213828 72 258 0.0 0.0 0.00 0.00 0.00 43 1018.8
20260503213325 71 246 0.0 0.0 0.00 0.00 0.00 39 1018.9
20260503212822 70 307 0.0 0.0 0.00 0.00 0.00 39 1018.9
20260503212320 72 220 3.0 4.0 0.00 0.00 0.00 39 1019.1
20260503211817 71 246 0.0 0.0 0.00 0.00 0.00 43 1019.1
20260503211314 71 247 0.0 0.0 0.00 0.00 0.00 44 1019.1
20260503210814 71 269 0.0 0.0 0.00 0.00 0.00 41 1019.1
20260503210311 70 219 2.0 3.0 0.00 0.00 0.00 44 1019.1
20260503205806 72 274 0.0 0.0 0.00 0.00 0.00 39 1019.3
20260503205304 71 224 0.0 0.0 0.00 0.00 0.00 38 1019.4
20260503204759 70 198 0.0 0.0 0.00 0.00 0.00 39 1019.5
20260503204252 70 198 0.0 0.0 0.00 0.00 0.00 39 1019.5
20260503203749 70 300 0.0 0.0 0.00 0.00 0.00 39 1019.3
20260503203246 71 121 0.0 1.0 0.00 0.00 0.00 39 1019.5
20260503202743 71 278 3.0 4.0 0.00 0.00 0.00 39 1019.4
20260503202241 70 325 0.0 0.0 0.00 0.00 0.00 39 1019.8
20260503201738 70 265 0.0 0.0 0.00 0.00 0.00 40 1019.9
20260503201236 70 164 0.0 0.0 0.00 0.00 0.00 43 1019.7
20260503200732 69 251 0.0 0.0 0.00 0.00 0.00 38 1019.9
20260503200228 69 323 0.0 0.0 0.00 0.00 0.00 48 1020.1
20260503195725 71 37 0.0 0.0 0.00 0.00 0.00 36 1020.3
20260503195222 69 250 0.0 0.0 0.00 0.00 0.00 42 1020.2
20260503194720 71 248 0.0 0.0 0.00 0.00 0.00 36 1020.4
20260503194215 70 98 0.0 0.0 0.00 0.00 0.00 41 1020.6
20260503193712 69 187 0.0 0.0 0.00 0.00 0.00 44 1020.7
20260503193208 68 258 0.0 0.0 0.00 0.00 0.00 45 1020.7
20260503192704 68 298 0.0 0.0 0.00 0.00 0.00 42 1020.8
20260503192159 68 261 0.0 0.0 0.00 0.00 0.00 44 1020.8
20260503191655 69 271 1.0 2.0 0.00 0.00 0.00 47 1020.9
20260503191153 69 258 0.0 1.0 0.00 0.00 0.00 44 1020.8
20260503190650 68 266 1.0 2.0 0.00 0.00 0.00 43 1021.0
20260503190146 69 240 0.0 0.0 0.00 0.00 0.00 43 1021.1
20260503185637 69 257 0.0 1.0 0.00 0.00 0.00 40 1021.2
20260503185133 67 229 0.0 0.0 0.00 0.00 0.00 44 1021.1
20260503184628 67 305 2.0 3.0 0.00 0.00 0.00 42 1021.2
20260503184125 67 280 0.0 0.0 0.00 0.00 0.00 46 1021.3
20260503183621 67 302 0.0 0.0 0.00 0.00 0.00 45 1021.4
20260503183119 67 283 3.0 4.0 0.00 0.00 0.00 41 1021.5
20260503182617 66 92 0.0 1.0 0.00 0.00 0.00 46 1021.5
20260503182114 68 236 0.0 0.0 0.00 0.00 0.00 45 1021.5
20260503181605 66 23 0.0 1.0 0.00 0.00 0.00 47 1021.5
20260503181102 67 328 2.0 2.0 0.00 0.00 0.00 45 1021.5
20260503180559 66 256 0.0 1.0 0.00 0.00 0.00 44 1021.8
20260503180057 65 256 0.0 0.0 0.00 0.00 0.00 50 1021.6
20260503175554 66 256 0.0 0.0 0.00 0.00 0.00 46 1021.8
20260503175051 65 269 0.0 0.0 0.00 0.00 0.00 49 1021.7
20260503174548 66 273 1.0 1.0 0.00 0.00 0.00 45 1022.1
20260503174044 65 266 0.0 0.0 0.00 0.00 0.00 49 1021.9
20260503173539 64 241 0.0 0.0 0.00 0.00 0.00 43 1021.7
20260503173036 65 327 3.0 4.0 0.00 0.00 0.00 44 1021.9
20260503172534 65 79 0.0 0.0 0.00 0.00 0.00 47 1021.9
20260503172030 65 269 2.0 3.0 0.00 0.00 0.00 44 1021.9
20260503171526 64 158 0.0 0.0 0.00 0.00 0.00 46 1022.2
20260503171024 64 223 0.0 1.0 0.00 0.00 0.00 47 1022.3
20260503170514 63 225 0.0 0.0 0.00 0.00 0.00 53 1022.2
20260503160205 61 105 4.0 4.0 0.00 0.00 0.00 53 1023.0
20260503150635 56 254 0.0 0.0 0.00 0.00 0.00 60 1023.4
20260503150131 57 226 1.0 2.0 0.00 0.00 0.00 59 1023.5
20260503131025 51 193 0.0 0.0 0.00 0.00 0.00 77 1022.5
20260503130522 51 189 0.0 0.0 0.00 0.00 0.00 77 1022.4
20260503110413 45 257 0.0 0.0 0.00 0.00 0.00 89 1021.7
20260503090258 47 264 0.0 0.0 0.00 0.00 0.00 85 1020.6